Temperature
8 9 9 9 9 10 10 10 10 10 7 8 8 9 9 7 6 6 6 5 5 4 4 5 5 6 6 6 6 6 6 5 5 5 5 6 6 6 6 6 6 6 6 6
9 8 8 7 8 8 9 9 9 8 6 7 7 8 8 7 6 5 5 5 4 4 4 4 4 5 5 5 5 5 5 5 5 5 5 5 5 5 5 5 5 5 5 5
9 7 6 6 7 8 8 8 8 8 6 6 6 9 8 7 6 5 4 4 3 3 3 3 4 4 4 4 4 4 5 5 5 5 5 5 5 5 5 5 5 5 5 5
6 6 6 6 6 7 8 7 7 6 7 8 7 9 9 7 6 5 4 3 3 3 3 3 3 3 4 4 4 4 4 4 4 4 4 4 4 4 4 4 4 4 4 4
6 5 5 5 5 5 6 5 5 6 6 7 6 7 9 6 6 5 4 3 2 2 2 2 3 3 3 3 3 3 3 3 3 4 4 4 4 4 4 4 4 4 4 4
5 4 4 4 4 4 4 5 5 5 6 6 6 7 8 7 5 5 4 2 1 1 1 2 2 3 3 3 3 3 3 3 3 3 3 3 3 3 3 3 3 3 3 3
5 4 3 3 4 4 4 6 6 6 6 7 5 5 7 5 4 3 3 2 1 1 1 1 2 2 2 2 3 3 3 3 3 2 3 3 3 3 3 3 2 3 3 3
5 5 4 3 4 4 4 5 6 7 8 8 4 5 6 3 2 1 1 1 0 0 0 0 1 1 1 2 2 2 2 2 2 2 2 2 2 2 2 2 2 2 2 2
5 5 2 2 2 3 4 4 4 5 4 5 6 5 4 3 2 1 1 0 -0 -0 0 0 0 1 1 1 1 2 2 2 2 2 2 2 1 1 1 2 1 1 1 1
3 3 2 2 2 2 3 3 3 4 5 6 6 5 5 3 2 2 1 0 -1 -1 -0 -0 -0 0 0 0 1 1 1 1 1 1 1 1 1 1 1 1 1 1 1 1
2 2 2 1 1 2 1 2 2 4 4 5 6 6 3 2 2 1 -0 -1 -2 -2 -2 -1 -1 -0 -0 -0 0 0 1 1 1 1 1 1 0 0 0 0 0 0 0 0
1 2 2 1 0 -0 1 1 2 3 3 3 5 5 1 1 -0 -1 -1 -2 -2 -2 -2 -2 -2 -2 -1 -1 -1 -0 -0 -0 -0 -0 -0 -0 -0 -0 -0 -0 -0 -0 -0 -1
-0 1 2 2 1 -1 -1 -1 -1 0 2 2 4 4 -0 -1 -1 -2 -2 -2 -3 -3 -3 -3 -3 -2 -2 -2 -2 -1 -1 -1 -1 -1 -1 -1 -1 -1 -1 -1 -1 -1 -1 -1
-0 -0 1 3 2 0 -1 -2 -2 -0 1 2 2 3 1 -0 -1 -1 -2 -3 -3 -4 -4 -4 -3 -3 -3 -3 -2 -2 -2 -2 -1 -1 -1 -1 -1 -1 -1 -1 -2 -2 -2 -2
-1 -0 -1 -1 -1 -1 -1 -1 -2 -2 0 1 1 0 1 -0 -1 -2 -3 -4 -4 -4 -4 -4 -4 -4 -4 -3 -3 -3 -3 -2 -2 -2 -2 -2 -2 -2 -2 -2 -2 -2 -2 -2
-2 -2 -2 -2 -2 -2 -2 -2 -2 -2 -1 -1 -1 -1 -1 -2 -3 -3 -4 -4 -5 -5 -5 -5 -5 -5 -4 -4 -4 -4 -3 -3 -3 -3 -3 -2 -2 -3 -3 -3 -3 -3 -3 -3
-2 -3 -1 -0 -2 -2 -1 -1 -2 -2 -3 -2 -1 -0 -2 -3 -3 -4 -4 -5 -5 -5 -5 -5 -5 -5 -5 -5 -5 -4 -4 -4 -4 -3 -3 -3 -3 -3 -3 -3 -3 -3 -3 -3
-3 -3 -2 -1 -2 -1 1 -3 -3 -3 -3 -3 -3 -3 -4 -4 -5 -5 -5 -5 -6 -6 -6 -6 -6 -6 -6 -5 -5 -5 -5 -4 -4 -4 -4 -4 -4 -4 -4 -4 -4 -4 -4 -4
-4 -3 -2 -2 -1 0 -0 -3 -4 -4 -3 -4 -4 -4 -5 -6 -5 -4 -5 -6 -6 -6 -6 -6 -6 -6 -6 -6 -6 -6 -5 -5 -5 -5 -5 -5 -5 -5 -5 -5 -5 -5 -5 -5
-5 -4 -2 -2 -1 -0 -0 -4 -6 -4 -2 -4 -6 -5 -6 -6 -3 -3 -6 -6 -6 -7 -7 -7 -7 -7 -6 -6 -6 -6 -6 -6 -6 -6 -6 -6 -6 -5 -5 -5 -5 -5 -5 -5
-4 -4 -3 -2 -2 -1 -4 -6 -5 -2 -2 -5 -6 -6 -7 -6 -5 -6 -7 -7 -7 -7 -7 -7 -7 -7 -7 -7 -7 -7 -6 -6 -6 -6 -6 -6 -6 -6 -6 -6 -6 -6 -6 -6
-3 -3 -4 -3 -2 -2 -6 -6 -4 -4 -6 -6 -7 -7 -7 -7 -7 -7 -7 -7 -7 -7 -7 -7 -7 -7 -7 -7 -7 -7 -7 -7 -7 -7 -7 -7 -7 -7 -7 -7 -7 -7 -7 -7
-5 -4 -4 -4 -3 -5 -7 -6 -6 -6 -7 -7 -7 -7 -7 -8 -8 -8 -8 -8 -8 -8 -8 -8 -8 -8 -8 -8 -8 -8 -7 -7 -7 -7 -7 -8 -8 -8 -8 -8 -8 -8 -8 -8
-6 -8 -6 -6 -6 -7 -7 -7 -7 -7 -7 -7 -7 -7 -8 -8 -8 -8 -8 -8 -8 -8 -9 -9 -8 -8 -8 -8 -8 -8 -8 -8 -8 -8 -8 -8 -8 -8 -8 -8 -9 -9 -9 -9
-6 -8 -7 -7 -7 -7 -7 -7 -7 -7 -7 -8 -8 -8 -8 -8 -8 -9 -9 -9 -9 -9 -9 -9 -9 -9 -9 -9 -9 -9 -9 -9 -9 -9 -9 -9 -9 -9 -9 -9 -9 -9 -9 -9
-8 -8 -7 -5 -6 -7 -7 -7 -7 -8 -8 -8 -8 -8 -8 -9 -9 -9 -9 -9 -9 -10 -10 -10 -10 -10 -9 -9 -9 -9 -9 -9 -9 -10 -10 -10 -10 -10 -10 -10 -10 -10 -10 -10
Wind_Speed
2 4 7 8 10 8 7 9 10 6 3 5 9 11 9 5 5 6 5 5 4 4 3 2 2 2 4 4 5 6 5 5 4 4 3 3 2 2 1 1 2 2 2 3
3 6 6 4 6 7 8 9 9 4 2 4 7 11 8 6 6 5 5 4 4 4 3 2 1 2 3 4 5 5 6 5 5 4 3 2 2 2 2 1 1 2 3 3
6 2 2 3 5 7 8 10 9 6 3 3 5 8 6 5 5 4 3 3 3 3 4 3 2 3 4 4 5 5 5 5 5 5 3 2 2 1 2 2 2 3 3 4
3 2 2 3 4 6 8 6 7 7 6 5 4 7 5 3 3 2 2 2 3 3 3 3 2 3 4 4 4 5 5 5 5 5 5 5 4 4 3 3 3 3 4 4
2 1 0 3 4 4 3 2 5 7 7 6 6 6 5 2 4 4 3 3 3 3 3 3 3 3 3 3 3 4 4 5 5 5 5 6 5 4 3 3 3 3 3 4
2 1 1 2 2 2 2 1 1 3 5 8 9 9 6 3 4 4 4 4 4 3 3 3 3 2 2 1 2 3 4 4 4 5 5 6 6 5 4 4 4 3 3 3
2 1 1 1 1 2 2 2 2 3 5 6 4 7 6 2 2 3 5 5 4 3 3 3 3 3 2 1 1 2 3 4 4 5 5 5 6 6 6 6 5 4 4 4
3 3 1 1 2 3 5 5 4 5 6 4 3 7 3 1 2 3 3 4 3 3 3 3 3 3 3 2 2 3 3 4 4 5 5 5 5 4 4 5 5 5 5 4
3 3 1 2 2 2 3 4 3 3 3 5 5 4 4 2 2 2 3 3 3 3 3 3 3 3 3 3 3 3 4 4 4 5 4 5 5 5 5 5 5 4 4 4
2 3 2 2 0 1 2 2 3 4 5 7 6 6 4 3 3 2 3 4 4 3 3 3 3 4 4 4 4 3 3 4 4 4 4 4 5 5 4 4 5 5 4 4
2 3 2 1 3 3 1 2 3 3 4 5 6 4 1 2 2 2 4 4 5 5 5 5 4 4 4 4 4 4 3 3 3 3 4 4 4 4 4 5 5 5 4 5
1 2 4 4 1 3 3 3 4 4 5 5 6 4 3 0 1 2 4 5 5 5 5 5 5 5 5 5 5 4 4 3 3 3 3 3 4 4 4 5 5 5 5 5
1 2 2 2 2 1 2 2 3 3 3 5 7 5 2 2 2 4 5 6 6 5 5 6 6 6 6 6 5 5 4 4 3 3 2 3 3 4 5 5 5 5 5 5
1 2 5 7 5 2 3 4 4 4 5 7 9 9 5 4 6 7 7 6 5 5 5 6 7 7 6 6 6 5 5 4 4 3 2 3 4 4 4 4 5 5 5 5
1 3 4 6 6 3 5 6 6 8 8 8 8 9 8 6 6 7 6 4 5 5 6 7 7 8 7 7 6 6 5 4 4 3 3 3 4 3 3 3 4 4 4 5
1 3 3 5 4 4 6 8 8 9 9 10 10 11 7 6 5 5 5 4 5 6 7 8 8 8 8 8 7 6 6 5 4 4 3 3 3 3 3 3 3 3 4 4
3 3 3 5 3 4 8 8 9 7 7 8 11 9 4 5 5 6 6 5 6 6 7 8 8 8 8 8 7 7 6 5 4 4 4 3 3 3 3 3 3 4 4 4
4 4 3 3 2 7 3 1 4 7 7 7 7 5 5 5 7 6 5 5 6 7 7 8 8 8 8 8 7 6 6 5 4 4 4 4 3 4 4 3 4 4 4 4
4 4 3 3 5 7 4 1 2 4 5 5 7 8 6 5 5 3 2 4 5 7 7 8 8 8 8 8 7 6 5 4 4 4 4 4 4 4 4 4 4 4 3 4
1 2 4 4 5 6 2 1 1 2 4 1 3 5 4 3 4 4 3 6 7 7 7 7 7 7 7 7 6 5 5 5 5 5 5 4 4 4 4 4 4 3 3 3
2 3 5 6 7 6 2 1 2 3 3 2 2 3 3 4 5 5 6 7 7 7 7 7 6 6 6 7 6 5 5 5 6 5 5 4 4 4 4 4 3 3 2 2
4 4 5 4 6 6 2 3 3 3 3 2 3 3 4 4 5 5 6 6 7 7 7 7 6 6 6 6 5 5 6 6 5 5 4 4 4 3 3 3 3 3 2 2
5 4 3 5 4 2 3 3 2 2 3 3 3 4 3 4 5 6 6 6 7 7 7 6 6 6 6 5 5 5 6 6 5 4 4 4 4 3 3 3 3 2 2 2
3 1 3 4 5 4 4 3 3 3 3 4 4 4 4 5 5 6 6 6 6 7 6 6 6 6 6 6 5 5 6 5 4 4 4 4 3 3 3 2 2 2 2 2
3 3 3 5 5 5 4 4 4 4 3 4 4 4 4 4 5 6 6 6 6 6 6 5 5 6 7 6 6 6 5 4 4 4 4 4 3 3 3 3 3 3 3 4
3 4 5 5 3 3 4 3 3 3 4 4 4 4 4 4 5 5 5 5 5 6 6 6 6 6 6 6 6 6 6 4 4 4 4 3 3 3 3 3 3 3 4 5
Wind_Direction
173 199 215 219 225 245 241 237 245 247 242 241 245 256 255 256 250 251 253 252 250 254 271 265 224 195 188 190 191 191 186 181 171 175 182 183 188 188 195 197 177 178 178 181
192 226 241 242 224 226 232 239 249 256 251 254 261 264 260 250 242 246 251 258 259 263 271 264 219 191 193 196 198 198 192 189 189 195 197 207 198 203 208 206 203 193 193 191
214 256 241 210 214 222 234 236 239 244 270 230 276 263 240 238 229 239 253 261 274 274 272 263 236 218 209 208 209 206 200 195 197 194 177 157 168 184 202 219 231 215 206 201
242 281 209 207 230 235 242 246 238 230 236 239 240 267 246 234 223 248 290 297 296 292 290 285 264 246 229 223 216 212 207 200 198 192 188 185 200 212 222 219 226 227 212 206
254 337 222 231 255 242 247 272 225 225 229 245 230 247 255 206 249 273 294 301 302 300 295 297 284 266 249 228 217 215 210 206 203 202 205 207 213 218 214 212 217 224 219 211
268 338 309 282 313 224 156 123 148 208 217 237 230 228 255 231 249 277 285 299 312 312 305 309 320 311 268 224 206 210 213 214 211 211 215 217 218 213 210 214 219 222 229 220
266 263 344 312 237 176 214 200 229 218 218 236 198 223 252 254 246 267 281 293 314 324 321 322 327 323 317 289 236 217 216 221 219 219 222 225 225 220 218 219 223 225 231 233
249 258 281 319 252 227 221 226 231 245 249 253 209 230 233 190 280 303 306 308 327 337 335 328 320 315 311 303 269 242 233 230 226 226 230 232 230 227 229 229 229 231 235 241
241 249 11 352 335 251 200 217 255 248 266 261 237 239 252 226 299 322 327 335 333 321 322 326 323 320 316 307 290 257 247 247 238 233 233 234 234 233 233 238 236 238 245 247
251 256 278 325 278 13 288 191 191 213 239 250 249 244 242 227 267 303 328 328 329 319 319 322 332 336 329 323 314 289 257 251 251 242 237 238 239 239 237 237 236 238 241 242
263 238 263 255 223 233 183 190 228 229 247 247 256 250 124 203 246 301 314 327 332 331 332 332 331 333 329 329 329 319 295 277 264 257 250 244 240 240 239 238 240 241 241 235
261 249 258 260 279 303 242 227 209 229 235 237 256 264 90 152 314 316 315 320 323 327 332 334 334 336 337 337 335 329 318 300 282 269 257 250 244 239 237 240 243 242 242 238
175 207 259 256 209 207 239 251 239 237 233 231 242 251 85 10 332 327 319 320 325 332 338 340 341 339 340 338 333 327 323 320 308 289 270 261 253 245 243 245 247 246 243 242
188 220 244 261 287 240 245 250 226 211 228 240 245 263 282 301 309 319 324 325 328 331 332 336 338 336 335 334 330 326 321 319 316 301 280 265 259 256 255 252 247 244 243 242
189 243 251 275 283 259 258 250 224 223 237 243 257 262 276 288 297 304 313 323 328 330 332 332 332 331 332 331 330 324 317 314 312 302 284 277 275 269 264 259 253 250 247 246
198 231 255 271 258 261 275 262 237 238 245 248 264 270 282 298 304 306 309 315 317 321 324 327 329 328 327 325 323 319 314 312 307 300 292 291 287 280 272 268 262 256 253 252
195 193 231 264 288 279 267 248 224 226 228 227 243 261 297 300 300 303 306 311 311 316 320 324 324 322 319 319 316 313 311 309 305 300 297 294 289 283 273 270 266 262 259 257
204 207 229 263 257 245 259 67 210 223 240 233 250 282 299 296 301 298 296 298 310 316 317 318 319 318 317 316 314 311 309 305 303 302 298 295 288 282 278 270 266 268 268 261
222 207 213 222 247 267 264 200 193 223 260 242 248 272 292 311 303 289 318 320 312 311 312 312 313 313 313 314 314 312 310 307 304 301 296 295 287 281 280 274 269 268 266 266
137 204 214 219 240 252 288 42 322 207 256 221 246 280 299 299 285 305 332 320 317 316 316 314 314 314 314 317 317 311 310 310 307 303 296 292 284 277 276 278 278 278 269 267
190 205 221 231 243 261 343 35 175 221 291 347 285 282 276 262 281 309 315 316 317 318 319 319 317 318 317 319 318 312 313 312 311 308 303 299 290 280 276 277 277 277 275 276
197 201 213 219 234 255 85 140 206 282 338 312 298 293 276 278 296 303 310 316 321 323 324 324 322 321 324 327 323 315 316 317 317 313 310 308 302 293 284 278 280 276 270 271
218 221 220 216 237 340 171 209 281 322 298 298 299 300 286 292 297 304 311 314 318 320 322 325 322 320 327 331 326 317 316 320 318 315 314 312 309 302 289 276 274 277 271 267
233 266 236 253 265 270 244 262 296 302 294 302 300 294 286 288 292 302 308 312 316 319 322 324 324 323 326 331 328 319 315 316 313 313 316 315 311 306 298 285 276 275 272 264
242 196 228 256 278 295 264 259 279 290 299 306 309 304 293 292 294 299 303 308 313 318 322 324 322 320 322 326 327 327 326 321 316 314 313 313 309 304 304 298 289 281 274 267
211 204 212 244 252 250 281 308 287 271 283 292 303 313 311 297 293 300 302 307 313 317 321 322 322 321 323 326 327 330 331 326 315 314 316 313 309 305 299 300 301 285 279 284
Height
1494 1494 1492 1492 1494 1493 1492 1491 1491 1494 1501 1501 1497 1495 1495 1497 1498 1498 1498 1498 1497 1497 1497 1497 1497 1498 1499 1501 1502 1504 1505 1507 1508 1509 1510 1512 1513 1514 1515 1516 1517 1518 1519 1520
1493 1493 1495 1496 1495 1495 1494 1493 1492 1498 1502 1501 1497 1493 1493 1495 1495 1496 1496 1496 1495 1495 1495 1495 1495 1495 1496 1497 1499 1501 1502 1503 1505 1506 1507 1509 1510 1511 1512 1513 1514 1515 1516 1517
1489 1495 1496 1496 1495 1495 1493 1492 1492 1496 1501 1502 1499 1487 1488 1491 1493 1494 1494 1494 1494 1493 1493 1493 1492 1493 1493 1494 1496 1497 1499 1500 1502 1503 1504 1506 1507 1508 1509 1509 1510 1511 1513 1514
1495 1497 1496 1495 1495 1494 1490 1494 1495 1497 1495 1492 1496 1482 1480 1487 1490 1492 1492 1492 1492 1492 1491 1491 1491 1491 1491 1492 1493 1494 1496 1497 1499 1500 1501 1502 1503 1503 1504 1506 1507 1508 1509 1510
1495 1498 1497 1496 1497 1497 1495 1498 1497 1496 1494 1494 1494 1491 1476 1487 1487 1488 1490 1491 1490 1490 1489 1489 1489 1489 1489 1490 1491 1492 1493 1494 1495 1496 1498 1499 1500 1500 1501 1502 1503 1504 1505 1506
1498 1500 1500 1499 1499 1499 1499 1499 1498 1497 1493 1490 1487 1487 1474 1482 1485 1487 1489 1489 1488 1488 1488 1487 1487 1487 1487 1487 1488 1489 1490 1491 1492 1493 1494 1495 1496 1497 1498 1498 1499 1500 1500 1501
1496 1498 1500 1500 1498 1499 1498 1494 1489 1487 1485 1478 1490 1488 1479 1484 1488 1488 1488 1488 1487 1487 1486 1486 1485 1485 1485 1485 1485 1486 1486 1487 1488 1489 1490 1491 1492 1493 1494 1494 1495 1496 1496 1497
1492 1492 1498 1500 1498 1496 1496 1493 1487 1481 1473 1472 1491 1483 1480 1487 1489 1489 1489 1488 1486 1486 1485 1484 1484 1483 1483 1483 1483 1483 1483 1484 1484 1485 1486 1487 1488 1489 1489 1490 1491 1492 1492 1492
1492 1493 1501 1501 1501 1498 1495 1493 1495 1491 1491 1484 1476 1481 1484 1487 1487 1488 1487 1486 1485 1484 1484 1483 1483 1482 1481 1481 1481 1480 1480 1481 1481 1481 1482 1483 1483 1484 1485 1486 1487 1487 1488 1488
1498 1498 1500 1502 1501 1501 1498 1495 1495 1490 1482 1474 1470 1474 1474 1483 1484 1485 1485 1485 1484 1483 1483 1482 1481 1480 1480 1479 1478 1478 1478 1477 1478 1478 1478 1479 1479 1480 1480 1481 1482 1482 1483 1483
1500 1499 1500 1501 1500 1496 1500 1500 1495 1489 1486 1476 1469 1470 1480 1483 1484 1485 1485 1485 1484 1482 1481 1480 1479 1478 1478 1477 1476 1475 1474 1474 1474 1474 1475 1475 1475 1476 1476 1477 1477 1478 1478 1479
1501 1498 1496 1498 1502 1503 1500 1498 1496 1490 1488 1487 1475 1476 1484 1485 1486 1486 1485 1484 1483 1481 1480 1479 1477 1476 1475 1474 1473 1472 1471 1471 1471 1471 1471 1471 1472 1472 1472 1472 1473 1473 1473 1473
1502 1501 1494 1491 1500 1504 1502 1501 1500 1497 1492 1487 1478 1477 1486 1486 1486 1486 1485 1483 1482 1480 1479 1477 1476 1474 1473 1471 1470 1469 1468 1468 1468 1468 1468 1468 1468 1468 1468 1468 1468 1468 1468 1469
1501 1501 1495 1486 1485 1494 1499 1501 1501 1497 1489 1484 1482 1477 1482 1484 1484 1484 1483 1482 1481 1479 1478 1477 1475 1473 1471 1470 1468 1467 1466 1465 1465 1465 1464 1464 1464 1464 1464 1464 1464 1464 1464 1464
1501 1499 1500 1497 1496 1497 1496 1496 1498 1497 1489 1484 1480 1482 1480 1483 1484 1483 1482 1481 1480 1478 1477 1475 1473 1471 1469 1467 1466 1464 1463 1462 1462 1461 1461 1461 1461 1460 1460 1460 1460 1460 1460 1460
1501 1500 1500 1498 1496 1497 1495 1492 1494 1494 1491 1488 1486 1483 1482 1483 1483 1482 1481 1480 1478 1477 1475 1473 1471 1469 1467 1465 1463 1462 1460 1459 1459 1458 1458 1457 1457 1456 1456 1455 1455 1455 1455 1455
1499 1500 1496 1489 1495 1495 1485 1485 1488 1488 1487 1485 1482 1480 1481 1482 1482 1481 1479 1478 1477 1476 1474 1472 1469 1467 1465 1463 1461 1459 1457 1457 1456 1455 1454 1454 1453 1453 1452 1451 1451 1451 1451 1451
1498 1497 1496 1492 1494 1487 1477 1484 1483 1484 1483 1484 1482 1481 1482 1481 1480 1479 1478 1477 1475 1474 1472 1469 1467 1465 1463 1461 1459 1457 1455 1454 1453 1452 1451 1450 1450 1449 1448 1448 1447 1447 1446 1446
1496 1496 1493 1491 1485 1476 1478 1483 1485 1484 1480 1481 1481 1480 1481 1480 1478 1476 1476 1475 1474 1472 1470 1468 1465 1463 1460 1458 1456 1454 1452 1451 1450 1449 1448 1447 1446 1445 1444 1444 1443 1443 1442 1442
1497 1496 1493 1490 1483 1475 1473 1483 1483 1484 1477 1478 1479 1479 1479 1478 1475 1474 1474 1473 1471 1469 1467 1465 1462 1460 1458 1456 1454 1452 1450 1448 1447 1446 1445 1444 1443 1442 1441 1440 1440 1439 1438 1437
1494 1494 1492 1487 1481 1474 1481 1483 1483 1479 1473 1478 1477 1477 1477 1477 1476 1474 1472 1470 1469 1467 1464 1462 1460 1457 1455 1453 1451 1449 1448 1446 1445 1443 1442 1441 1440 1439 1438 1437 1436 1435 1435 1434
1487 1487 1489 1486 1482 1477 1483 1483 1482 1478 1478 1477 1476 1476 1475 1474 1473 1471 1470 1468 1466 1464 1462 1459 1457 1455 1453 1451 1449 1447 1445 1444 1442 1440 1439 1438 1437 1436 1435 1434 1433 1432 1431 1430
1488 1486 1483 1484 1480 1480 1480 1479 1479 1478 1477 1476 1475 1474 1473 1472 1470 1469 1467 1465 1464 1462 1459 1457 1455 1452 1450 1448 1446 1444 1443 1441 1439 1438 1436 1435 1434 1433 1432 1431 1430 1429 1428 1427
1487 1488 1486 1484 1479 1479 1478 1477 1477 1476 1475 1475 1474 1473 1471 1470 1468 1467 1465 1463 1461 1459 1457 1454 1452 1450 1448 1446 1444 1442 1440 1438 1437 1435 1433 1432 1431 1430 1429 1428 1427 1426 1425 1424
1483 1485 1483 1481 1478 1477 1474 1474 1474 1474 1473 1473 1472 1471 1469 1468 1466 1464 1462 1461 1459 1457 1455 1452 1450 1447 1445 1443 1442 1440 1438 1436 1434 1433 1431 1430 1429 1428 1426 1425 1425 1423 1422 1422
1481 1481 1479 1474 1474 1474 1473 1472 1472 1471 1471 1470 1469 1468 1467 1466 1464 1462 1460 1458 1456 1454 1452 1450 1448 1445 1443 1441 1439 1438 1436 1434 1432 1430 1429 1428 1427 1425 1424 1422 1421 1420 1420 1418